When you browse on this site, cookies collect data to enhance your experience and personalize the content and advertising you see.
Visit our Privacy Policy to learn more. By continuing to use the site, you agree to this use of cookies and data.
  • In Spain
  • List of Countries
  • For 7 days
  • Water Temperature
  • Satellite Maps
  • Weather Map
  • Weather Widgets
  • user-avatar
    Login

    Hourly Weather Pavlodar

    Today, 17 June, Monday

    Time Temperature Precipitation Wind Pressure Humidity
    00:00 +10°C° 0 mm 4 mps 747 mmHg 69%
    01:00 +10°C° 0 mm 4 mps 746 mmHg 69%
    02:00 +8°C° 0 mm 4 mps 746 mmHg 69%
    03:00 +10°C° 0 mm 4 mps 746 mmHg 70%
    04:00 +10°C° 0 mm 4 mps 746 mmHg 70%
    05:00 +10°C° 0 mm 3 mps 746 mmHg 71%
    06:00 +12°C° 0 mm 4 mps 746 mmHg 65%
    07:00 +14°C° 0 mm 5 mps 747 mmHg 60%
    08:00 +16°C° 0 mm 5 mps 747 mmHg 54%
    09:00 +17°C° 0 mm 5 mps 746 mmHg 50%
    10:00 +19°C° 0 mm 5 mps 746 mmHg 46%
    11:00 +21°C° 0 mm 5 mps 746 mmHg 41%
    12:00 +21°C° 0 mm 5 mps 745 mmHg 41%
    13:00 +21°C° 0 mm 5 mps 745 mmHg 41%
    14:00 +21°C° 0 mm 5 mps 744 mmHg 41%
    15:00 +21°C° 0 mm 5 mps 744 mmHg 41%
    16:00 +21°C° 0 mm 5 mps 744 mmHg 42%
    17:00 +21°C° 0 mm 4 mps 744 mmHg 42%
    18:00 +20°C° 0 mm 4 mps 743 mmHg 47%
    19:00 +19°C° 0 mm 3 mps 743 mmHg 51%
    20:00 +18°C° 0 mm 3 mps 742 mmHg 56%
    21:00 +17°C° 0 mm 3 mps 742 mmHg 54%
    22:00 +17°C° 0 mm 4 mps 741 mmHg 53%
    23:00 +17°C° 0 mm 4 mps 741 mmHg 52%

    Tomorrow, 18 June, Tuesday

    Time Temperature Precipitation Wind Pressure Humidity
    00:00 +17°C° 0 mm 4 mps 740 mmHg 52%
    01:00 +17°C° 0 mm 3 mps 740 mmHg 53%
    02:00 +17°C° 0 mm 3 mps 739 mmHg 53%
    03:00 +16°C° 0 mm 3 mps 739 mmHg 55%
    04:00 +15°C° 0 mm 4 mps 738 mmHg 57%
    05:00 +15°C° 0 mm 4 mps 738 mmHg 59%
    06:00 +16°C° 0 mm 5 mps 738 mmHg 62%
    07:00 +17°C° 0 mm 5 mps 738 mmHg 64%
    08:00 +19°C° 0 mm 6 mps 738 mmHg 67%
    09:00 +19°C° 0.4 mm 6 mps 738 mmHg 65%
    10:00 +20°C° 0.4 mm 6 mps 738 mmHg 62%
    11:00 +21°C° 0.4 mm 6 mps 738 mmHg 59%
    12:00 +21°C° 0.6 mm 6 mps 739 mmHg 57%
    13:00 +21°C° 0.6 mm 6 mps 739 mmHg 55%
    14:00 +21°C° 0.6 mm 7 mps 739 mmHg 54%
    15:00 +20°C° 0.1 mm 7 mps 739 mmHg 53%
    16:00 +20°C° 0.1 mm 7 mps 740 mmHg 53%
    17:00 +20°C° 0.1 mm 6 mps 740 mmHg 53%
    18:00 +17°C° 0.1 mm 6 mps 741 mmHg 58%
    19:00 +16°C° 0.1 mm 5 mps 741 mmHg 63%
    20:00 +14°C° 0.1 mm 4 mps 742 mmHg 69%
    21:00 +14°C° 0 mm 3 mps 742 mmHg 70%
    22:00 +14°C° 0 mm 2 mps 743 mmHg 72%
    23:00 +13°C° 0 mm 2 mps 743 mmHg 74%

    Day after tomorrow, 19 June, Wednesday

    Time Temperature Precipitation Wind Pressure Humidity
    00:00 +13°C° 0 mm 2 mps 743 mmHg 74%
    01:00 +13°C° 0 mm 2 mps 744 mmHg 74%
    02:00 +13°C° 0 mm 2 mps 744 mmHg 74%
    03:00 +12°C° 0 mm 3 mps 744 mmHg 72%
    04:00 +12°C° 0 mm 3 mps 744 mmHg 71%
    05:00 +12°C° 0 mm 3 mps 745 mmHg 69%
    06:00 +14°C° 0 mm 3 mps 745 mmHg 62%
    07:00 +17°C° 0 mm 3 mps 745 mmHg 55%
    08:00 +19°C° 0 mm 3 mps 746 mmHg 48%
    09:00 +20°C° 0 mm 3 mps 746 mmHg 44%
    10:00 +21°C° 0 mm 3 mps 746 mmHg 41%
    11:00 +22°C° 0 mm 3 mps 746 mmHg 37%
    12:00 +22°C° 0 mm 4 mps 746 mmHg 36%
    13:00 +23°C° 0 mm 4 mps 745 mmHg 34%
    14:00 +23°C° 0 mm 4 mps 745 mmHg 33%
    15:00 +23°C° 0 mm 4 mps 745 mmHg 34%
    16:00 +23°C° 0 mm 4 mps 745 mmHg 35%
    17:00 +23°C° 0 mm 4 mps 745 mmHg 37%
    18:00 +22°C° 0 mm 3 mps 745 mmHg 42%
    19:00 +20°C° 0 mm 3 mps 746 mmHg 47%
    20:00 +19°C° 0 mm 2 mps 746 mmHg 52%
    21:00 +18°C° 0 mm 2 mps 746 mmHg 51%
    22:00 +18°C° 0 mm 2 mps 746 mmHg 51%
    23:00 +18°C° 0 mm 2 mps 746 mmHg 51%

    20 June, Thursday

    Time Temperature Precipitation Wind Pressure Humidity
    00:00 +17°C° 0 mm 2 mps 746 mmHg 54%
    01:00 +17°C° 0 mm 2 mps 747 mmHg 57%
    02:00 +16°C° 0 mm 2 mps 747 mmHg 60%
    03:00 +16°C° 0 mm 2 mps 747 mmHg 65%
    04:00 +14°C° 0 mm 3 mps 747 mmHg 70%
    05:00 +14°C° 0 mm 3 mps 748 mmHg 75%
    06:00 +16°C° 0 mm 3 mps 748 mmHg 73%
    07:00 +17°C° 0 mm 3 mps 748 mmHg 71%
    08:00 +18°C° 0 mm 4 mps 748 mmHg 68%
    09:00 +19°C° 0.1 mm 3 mps 749 mmHg 63%
    10:00 +20°C° 0.1 mm 3 mps 749 mmHg 58%
    11:00 +22°C° 0.1 mm 3 mps 749 mmHg 53%
    12:00 +22°C° 0.4 mm 3 mps 749 mmHg 50%
    13:00 +22°C° 0.4 mm 3 mps 749 mmHg 46%
    14:00 +24°C° 0.4 mm 3 mps 748 mmHg 43%
    15:00 +24°C° 0 mm 3 mps 749 mmHg 41%
    16:00 +24°C° 0 mm 2 mps 749 mmHg 39%
    17:00 +24°C° 0 mm 2 mps 749 mmHg 37%
    18:00 +21°C° 0 mm 2 mps 749 mmHg 42%
    19:00 +20°C° 0 mm 2 mps 749 mmHg 48%
    20:00 +19°C° 0 mm 2 mps 749 mmHg 53%
    21:00 +18°C° 0 mm 2 mps 749 mmHg 55%
    22:00 +17°C° 0 mm 2 mps 749 mmHg 57%
    23:00 +17°C° 0 mm 2 mps 749 mmHg 59%

    21 June, Friday

    Time Temperature Precipitation Wind Pressure Humidity
    00:00 +16°C° 0 mm 2 mps 749 mmHg 63%
    01:00 +16°C° 0 mm 1 mps 749 mmHg 66%
    02:00 +15°C° 0 mm 1 mps 749 mmHg 70%
    03:00 +16°C° 0 mm 1 mps 749 mmHg 69%
    04:00 +16°C° 0 mm 1 mps 749 mmHg 68%
    05:00 +16°C° 0 mm 0 mps 749 mmHg 67%
    06:00 +19°C° 0 mm 1 mps 749 mmHg 61%
    07:00 +20°C° 0 mm 1 mps 749 mmHg 55%
    08:00 +21°C° 0 mm 2 mps 749 mmHg 49%
    09:00 +23°C° 0 mm 2 mps 749 mmHg 45%
    10:00 +24°C° 0 mm 2 mps 749 mmHg 40%
    11:00 +24°C° 0 mm 2 mps 749 mmHg 36%
    12:00 +25°C° 0 mm 2 mps 748 mmHg 36%
    13:00 +25°C° 0 mm 2 mps 748 mmHg 36%
    14:00 +25°C° 0 mm 3 mps 748 mmHg 35%
    15:00 +26°C° 0 mm 3 mps 748 mmHg 35%
    16:00 +26°C° 0 mm 2 mps 747 mmHg 35%
    17:00 +26°C° 0 mm 2 mps 747 mmHg 34%
    18:00 +24°C° 0 mm 2 mps 747 mmHg 39%
    19:00 +23°C° 0 mm 2 mps 747 mmHg 43%
    20:00 +20°C° 0 mm 2 mps 746 mmHg 47%
    21:00 +20°C° 0 mm 3 mps 746 mmHg 48%
    22:00 +19°C° 0 mm 3 mps 746 mmHg 48%
    23:00 +19°C° 0 mm 4 mps 746 mmHg 48%

    22 June, Saturday

    Time Temperature Precipitation Wind Pressure Humidity
    00:00 +18°C° 0 mm 3 mps 745 mmHg 50%
    01:00 +18°C° 0 mm 3 mps 745 mmHg 52%
    02:00 +17°C° 0 mm 2 mps 745 mmHg 55%
    03:00 +17°C° 0 mm 3 mps 745 mmHg 57%
    04:00 +17°C° 0 mm 3 mps 745 mmHg 59%
    05:00 +17°C° 0 mm 3 mps 744 mmHg 61%
    06:00 +19°C° 0 mm 4 mps 745 mmHg 61%
    07:00 +20°C° 0 mm 4 mps 745 mmHg 61%
    08:00 +22°C° 0 mm 5 mps 745 mmHg 62%
    09:00 +23°C° 0.1 mm 5 mps 745 mmHg 58%
    10:00 +23°C° 0.1 mm 5 mps 745 mmHg 54%
    11:00 +25°C° 0.1 mm 5 mps 745 mmHg 50%
    12:00 +23°C° 0.2 mm 5 mps 745 mmHg 53%
    13:00 +22°C° 0.2 mm 4 mps 745 mmHg 56%
    14:00 +21°C° 0.2 mm 3 mps 745 mmHg 58%
    15:00 +21°C° 0.4 mm 4 mps 745 mmHg 58%
    16:00 +21°C° 0.4 mm 4 mps 745 mmHg 58%
    17:00 +20°C° 0.4 mm 4 mps 745 mmHg 58%
    18:00 +19°C° 0.1 mm 4 mps 745 mmHg 60%
    19:00 +18°C° 0.1 mm 4 mps 746 mmHg 63%
    20:00 +17°C° 0.1 mm 4 mps 746 mmHg 66%
    21:00 +15°C° 0 mm 4 mps 746 mmHg 70%
    22:00 +14°C° 0 mm 4 mps 746 mmHg 75%
    23:00 +13°C° 0 mm 3 mps 746 mmHg 80%
    Show more